Location: Liscomb Game Sanctuary
(45.1633°N, 62.5575°W)
Time: 06:12:33
(UTC-03:00)

Amateur Radio Satellites - All Passes

Search period start: 30 August 2016 05:42
Search period end: 31 August 2016 05:42
Location: Liscomb Game Sanctuary, 45.1633°N, 62.5575°W

Satellite Date Start Highest point End Downlink Frequencies (MHz)
Time Altitude Azimuth
AO-7 30 Aug 05:45:55 05:54:10 70° 294° (WNW) 06:02:22 29.400- 29.500
CUBESAT XI-V 30 Aug 05:46:11 05:50:46 66° 258° (WSW) 05:55:24 437.345
AO-85 30 Aug 05:49:23 05:54:41 84° 306° (NW) 05:59:40 145.980
RS-15 30 Aug 05:54:18 06:04:34 30° 353° (N) 06:15:05 29.354- 29.394
PHONESAT 2.4 30 Aug 05:56:33 05:58:10 14° 204° (SSW) 05:59:49 2401.200-2431.200
ITAMSAT 1 30 Aug 06:00:14 06:03:18 16° 302° (WNW) 06:06:22 435.822/435.867
STARS 30 Aug 06:02:28 06:05:09 16° 269° (W) 06:07:50 437.465
BRITE-PL 30 Aug 06:29:19 06:34:50 46° 97° (E) 06:40:09 437.365/2234.400
STRAND 1 30 Aug 06:32:36 06:36:47 26° 64° (ENE) 06:40:59 437.568
NOAA 18 30 Aug 06:41:22 06:45:32 22° 93° (E) 06:49:41 137.9125
HORYU 2 30 Aug 06:42:42 06:47:06 66° 287° (WNW) 06:51:27 437.375
YUBILEINY 30 Aug 06:57:11 07:06:03 90° 102° (ESE) 07:14:56 435.215
SO-50 30 Aug 07:00:47 07:04:44 27° 40° (NE) 07:08:36 436.795
Cubesat XI-IV 30 Aug 07:07:22 07:12:24 41° 98° (E) 07:17:24 437.490
NOAA 15 30 Aug 07:10:46 07:16:01 56° 101° (E) 07:21:13 137.62
LilacSat-2 30 Aug 07:16:14 07:19:56 52° 99° (E) 07:23:37 437.200
CUTE-I 30 Aug 07:18:16 07:23:28 52° 100° (E) 07:28:38 437.470
DOVE 4 30 Aug 07:23:41 07:28:04 30° 93° (E) 07:32:13 437.250
Cosmos 2504 30 Aug 07:25:52 07:33:56 55° 91° (E) 07:41:27 435.465 / 435.565
GOMX 1 30 Aug 07:30:01 07:35:27 74° 101° (E) 07:40:34 467.674
AO-85 30 Aug 07:32:13 07:35:49 19° 324° (NW) 07:39:16 145.980
AO-7 30 Aug 07:40:13 07:45:31 19° 315° (NW) 07:50:49 29.400- 29.500
Cosmos 2491 30 Aug 07:40:48 07:47:08 23° 282° (WNW) 07:53:28 435.465 / 435.565
CINEMA 3 30 Aug 07:46:24 07:48:23 13° 87° (E) 07:50:20 145.822/145.860
ISS 30 Aug 07:46:30 07:48:49 18° 135° (SE) 07:51:08 145.825
CANX-2 30 Aug 07:46:32 07:47:09 10° 88° (E) 07:47:46 2200.000
CUTE 1.7 + AOD 2 30 Aug 07:52:08 07:52:42 10° 88° (E) 07:53:16 437.475
BRITE-PL 30 Aug 08:08:09 08:13:02 30° 295° (WNW) 08:17:49 437.365/2234.400
RS-15 30 Aug 08:10:17 08:21:37 39° 28° (NNE) 08:32:55 29.354- 29.394
STRAND 1 30 Aug 08:10:54 08:15:44 43° 261° (W) 08:20:37 437.568
NOAA 18 30 Aug 08:21:12 08:26:33 56° 291° (WNW) 08:31:51 137.9125
CUSAT 1 30 Aug 08:38:30 08:42:20 16° 62° (ENE) 08:46:29 437.405
SO-50 30 Aug 08:41:00 08:45:28 49° 240° (WSW) 08:49:47 436.795
Cubesat XI-IV 30 Aug 08:47:46 08:52:18 29° 296° (WNW) 08:56:51 437.490
HO-68 30 Aug 08:47:55 08:54:49 47° 99° (E) 09:01:38 435.675
NOAA 15 30 Aug 08:51:20 08:55:24 23° 299° (WNW) 08:59:27 137.62
LilacSat-2 30 Aug 08:51:56 08:53:50 13° 297° (WNW) 08:55:43 437.200
SEEDS 30 Aug 08:52:18 08:56:08 33° 96° (E) 08:59:57 437.485
YUBILEINY 30 Aug 08:57:38 09:04:09 22° 300° (WNW) 09:10:43 435.215
CUTE-I 30 Aug 08:59:00 09:03:11 24° 298° (WNW) 09:07:21 437.470
DOVE 4 30 Aug 09:01:13 09:05:47 35° 293° (WNW) 09:10:06 437.250
PRISM 30 Aug 09:03:26 09:07:32 87° 75° (ENE) 09:11:42 437.425
GOMX 1 30 Aug 09:09:18 09:12:51 18° 301° (WNW) 09:16:17 467.674
UNISAT 6 30 Aug 09:09:21 09:11:30 13° 60° (ENE) 09:13:39 437.425
UWE-3 30 Aug 09:13:16 09:16:17 19° 92° (E) 09:19:15 435.000/436.395/437.385
AAUSAT CUBESAT 2 30 Aug 09:15:27 09:19:13 32° 96° (E) 09:22:59 437.432
CANX-2 30 Aug 09:19:17 09:23:32 78° 286° (WNW) 09:27:47 2200.000
Cosmos 2504 30 Aug 09:20:17 09:27:36 34° 291° (WNW) 09:34:33 435.465 / 435.565
CUBEBUG 2 30 Aug 09:20:57 09:24:49 34° 97° (E) 09:28:35 437.445
CINEMA 3 30 Aug 09:21:35 09:26:05 66° 285° (WNW) 09:30:20 145.822/145.860
ISS 30 Aug 09:21:41 09:24:57 72° 332° (NNW) 09:28:15 145.825
ZACube-1 30 Aug 09:21:57 09:24:23 15° 90° (E) 09:26:49 437.345
CUTE 1.7 + AOD 2 30 Aug 09:24:49 09:29:05 78° 284° (WNW) 09:33:19 437.475
COMPASS 1 30 Aug 09:26:05 09:30:13 53° 100° (E) 09:34:19 437.405
BEESAT 2 30 Aug 09:26:14 09:29:23 23° 114° (ESE) 09:32:34 435.950
BEESAT 3 30 Aug 09:37:49 09:41:39 58° 121° (ESE) 09:45:33 437.485
ANTELSAT 30 Aug 09:44:12 09:48:03 28° 67° (ENE) 09:51:51 437.575/2403.000
AIST 1 30 Aug 09:44:31 09:48:52 82° 280° (W) 09:53:17
DANDE 30 Aug 10:00:35 10:05:00 23° 70° (ENE) 10:10:19 436.750
TIGRISAT 30 Aug 10:13:39 10:18:03 50° 72° (ENE) 10:22:24 435.000
CUSAT 1 30 Aug 10:18:35 10:25:08 73° 78° (ENE) 10:32:56 437.405
Oscar 11 30 Aug 10:22:16 10:26:35 69° 101° (E) 10:30:53 145.826/435.025
RS-15 30 Aug 10:23:28 10:35:56 89° 53° (NE) 10:48:11 29.354- 29.394
SEEDS 30 Aug 10:28:17 10:31:42 24° 293° (WNW) 10:35:06 437.485
DELFI C3 30 Aug 10:30:27 10:34:09 35° 97° (E) 10:37:50 145.870
FUNcube-1 30 Aug 10:33:42 10:37:52 85° 103° (ESE) 10:42:00 145.935
HO-68 30 Aug 10:35:54 10:42:24 39° 299° (WNW) 10:48:52 435.675
JAS-2 30 Aug 10:39:21 10:41:33 13° 51° (NE) 10:43:49 435.910
QB50P1 30 Aug 10:43:02 10:45:52 18° 63° (ENE) 10:48:43 145.935-145.965
UNISAT 6 30 Aug 10:43:04 10:47:39 78° 258° (WSW) 10:52:10 437.425
UWE-3 30 Aug 10:49:01 10:52:56 39° 290° (WNW) 10:56:47 435.000/436.395/437.385
AAUSAT CUBESAT 2 30 Aug 10:51:12 10:54:34 24° 293° (WNW) 10:57:56 437.432
POPSAT HIP 1 30 Aug 10:52:51 10:56:06 21° 65° (ENE) 10:59:21 437.405
ZACube-1 30 Aug 10:56:58 11:01:00 49° 287° (WNW) 11:04:59 437.345
CUBEBUG 2 30 Aug 10:57:56 11:01:17 23° 294° (WNW) 11:04:33 437.445
ISS 30 Aug 10:58:56 11:01:48 27° 352° (N) 11:04:41 145.825
COMPASS 1 30 Aug 11:02:48 11:05:21 16° 297° (WNW) 11:07:55 437.405
BEESAT 2 30 Aug 11:03:19 11:07:01 38° 312° (NW) 11:10:47 435.950
GONETS M04 30 Aug 11:14:38 11:22:02 32° 82° (E) 11:29:29
DUCHIFAT 1 30 Aug 11:16:25 11:20:13 32° 68° (ENE) 11:24:02 145.980
BEESAT 3 30 Aug 11:16:48 11:19:40 19° 321° (NW) 11:22:34 437.485
HUMSAT D 30 Aug 11:17:59 11:22:01 57° 101° (E) 11:26:03 437.325/437.525
ANTELSAT 30 Aug 11:20:32 11:24:40 33° 263° (W) 11:28:45 437.575/2403.000
PCSat 30 Aug 11:22:25 11:27:21 37° 112° (ESE) 11:32:19 145.827
QB50P2 30 Aug 11:23:00 11:27:04 45° 71° (ENE) 11:31:10 145.880/145.840
POLYITAN 1 30 Aug 11:25:29 11:29:35 46° 71° (ENE) 11:33:41 437.675
NANOSAT C BR1 30 Aug 11:31:19 11:35:25 49° 72° (ENE) 11:39:33 145.865
DANDE 30 Aug 11:42:23 11:47:55 64° 262° (W) 11:55:04 436.750
CUBEBUG 1 30 Aug 11:47:56 11:50:16 14° 90° (E) 11:52:36 437.445
TIGRISAT 30 Aug 11:51:53 11:55:00 18° 268° (W) 11:58:05 435.000
VELOX 1 30 Aug 11:53:44 11:55:48 13° 89° (E) 11:57:51 145.980
BUGSAT 1 30 Aug 11:59:18 12:03:18 41° 70° (ENE) 12:07:18 437.445
Oscar 11 30 Aug 12:00:01 12:02:11 14° 299° (WNW) 12:04:21 145.826/435.025
AIST 2 30 Aug 12:01:16 12:05:07 41° 118° (ESE) 12:09:02 435.215
CUSAT 1 30 Aug 12:01:33 12:06:47 25° 272° (W) 12:12:39 437.405
DELFI C3 30 Aug 12:05:45 12:08:48 21° 294° (WNW) 12:11:50 145.870
50 SAT 30 Aug 12:06:45 12:08:55 15° 92° (E) 12:11:06 437.505
FUNcube-1 30 Aug 12:12:46 12:13:27 10° 301° (WNW) 12:14:08 145.935
Cosmos 2499 30 Aug 12:14:51 12:22:39 57° 92° (E) 12:29:54 435.465 / 435.565
QB50P1 30 Aug 12:17:07 12:21:16 50° 260° (W) 12:25:27 145.935-145.965
JAS-2 30 Aug 12:20:17 12:25:31 77° 73° (ENE) 12:31:15 435.910
POPSAT HIP 1 30 Aug 12:27:37 12:31:39 39° 262° (W) 12:35:41 437.405
AUBIESAT-1 30 Aug 12:32:56 12:36:53 53° 106° (ESE) 12:40:30 437.475
UKube-1 30 Aug 12:35:09 12:38:10 18° 92° (E) 12:41:09 .
ISS 30 Aug 12:35:55 12:38:54 30° 12° (NNE) 12:41:52 145.825
RS-15 30 Aug 12:37:17 12:46:55 28° 259° (W) 12:56:26 29.354- 29.394
Gurwin Techsat 1B 30 Aug 12:37:21 12:39:44 13° 55° (NE) 12:42:08 435.225
AO-85 30 Aug 12:39:56 12:43:26 22° 38° (NE) 12:46:43 145.980
Oscar 19 30 Aug 12:40:26 12:44:41 26° 63° (ENE) 12:48:57 437.125/150
M-CUBED/EXP-1 PRIME 30 Aug 12:41:10 12:45:18 83° 108° (ESE) 12:49:04 437.505
AISAT 30 Aug 12:41:21 12:45:36 41° 98° (E) 12:49:48 437.250
ESTCUBE 1 30 Aug 12:45:06 12:49:40 81° 103° (ESE) 12:54:13 437.505/2401.250
DUCHIFAT 1 30 Aug 12:52:27 12:55:56 24° 265° (W) 12:59:27 145.980
HUMSAT D 30 Aug 12:54:59 12:57:12 14° 298° (WNW) 12:59:26 437.325/437.525
QB50P2 30 Aug 13:00:11 13:03:07 18° 268° (W) 13:06:02 145.880/145.840
POLYITAN 1 30 Aug 13:02:43 13:05:37 18° 268° (W) 13:08:31 437.675
PCSat 30 Aug 13:05:42 13:10:44 38° 312° (NW) 13:15:49 145.827
AO-7 30 Aug 13:08:13 13:11:47 13° 38° (NE) 13:15:21 29.400- 29.500
NANOSAT C BR1 30 Aug 13:08:45 13:11:26 16° 269° (W) 13:14:08 145.865
GONETS M04 30 Aug 13:09:38 13:18:17 62° 284° (WNW) 13:27:03
CUBEBUG 1 30 Aug 13:22:35 13:26:58 62° 287° (WNW) 13:31:19 437.445
SPROUT 30 Aug 13:26:10 13:30:26 63° 101° (E) 13:34:39 437.525
VELOX 1 30 Aug 13:28:17 13:32:44 68° 287° (WNW) 13:37:09 145.980
TISAT 1 30 Aug 13:35:21 13:38:11 17° 92° (E) 13:40:59 437.305
DX 1 30 Aug 13:35:23 13:39:48 84° 286° (WNW) 13:44:11 434.975-435.025
BUGSAT 1 30 Aug 13:35:43 13:38:50 20° 267° (W) 13:41:57 437.445
50 SAT 30 Aug 13:39:15 13:42:41 39° 288° (WNW) 13:46:07 437.505
AIST 2 30 Aug 13:40:16 13:43:45 26° 318° (NW) 13:47:15 435.215
ITAMSAT 1 30 Aug 14:01:33 14:05:28 22° 61° (ENE) 14:09:23 435.822/435.867
AUBIESAT-1 30 Aug 14:08:27 14:10:52 16° 305° (NW) 14:13:11 437.475
JAS-2 30 Aug 14:08:42 14:11:30 14° 274° (W) 14:14:24 435.910
Cosmos 2499 30 Aug 14:09:12 14:16:06 32° 291° (WNW) 14:22:37 435.465 / 435.565
UKube-1 30 Aug 14:10:17 14:14:27 46° 289° (WNW) 14:18:35 .
O/OREOS (USA 219) 30 Aug 14:12:00 14:16:30 87° 300° (WNW) 14:21:04 437.305
ISS 30 Aug 14:12:19 14:15:37 79° 212° (SSW) 14:18:53 145.825
Gurwin Techsat 1B 30 Aug 14:13:32 14:18:51 80° 74° (ENE) 14:24:11 435.225
M-CUBED/EXP-1 PRIME 30 Aug 14:17:41 14:19:05 12° 308° (NW) 14:20:27 437.505
AISAT 30 Aug 14:18:22 14:21:49 22° 296° (WNW) 14:25:14 437.250
Oscar 19 30 Aug 14:18:50 14:23:45 45° 261° (W) 14:28:45 437.125/150
AO-85 30 Aug 14:20:02 14:24:12 52° 240° (WSW) 14:28:04 145.980
ESTCUBE 1 30 Aug 14:23:47 14:25:50 13° 301° (WNW) 14:27:53 437.505/2401.250
SWISSCUBE 30 Aug 14:33:02 14:36:07 17° 91° (E) 14:39:12 437.505
BEESAT 30 Aug 14:49:21 14:53:02 22° 93° (E) 14:56:42 436.000
PCSat 30 Aug 14:54:17 14:55:46 11° 335° (NNW) 14:57:15 145.827
AO-7 30 Aug 14:54:42 15:02:35 49° 61° (ENE) 15:10:28 29.400- 29.500
SPROUT 30 Aug 15:03:32 15:05:53 15° 299° (WNW) 15:08:13 437.525
TISAT 1 30 Aug 15:10:02 15:14:04 45° 289° (WNW) 15:18:02 437.305
YUBILEINY 30 Aug 15:11:52 15:14:08 11° 48° (NE) 15:16:25 435.215
GONETS M04 30 Aug 15:13:01 15:17:19 14° 308° (NW) 15:21:39
DX 1 30 Aug 15:14:28 15:15:15 10° 303° (WNW) 15:16:02 434.975-435.025
ITUPSAT 1 30 Aug 15:38:09 15:42:54 63° 102° (ESE) 15:47:38 437.325
ITAMSAT 1 30 Aug 15:39:29 15:44:33 55° 259° (W) 15:49:39 435.822/435.867
ISS 30 Aug 15:50:18 15:51:36 12° 228° (SW) 15:52:53 145.825
O/OREOS (USA 219) 30 Aug 15:54:31 15:56:38 13° 314° (NW) 15:58:47 437.305
Gurwin Techsat 1B 30 Aug 15:56:39 15:59:26 14° 272° (W) 16:02:14 435.225
HORYU 2 30 Aug 16:07:43 16:10:39 18° 62° (ENE) 16:13:35 437.375
SWISSCUBE 30 Aug 16:09:36 16:14:18 58° 288° (WNW) 16:18:58 437.505
MOZHAYETS 4 30 Aug 16:12:34 16:16:17 24° 93° (E) 16:20:00
BEESAT 3 30 Aug 16:16:55 16:18:36 12° 33° (NNE) 16:20:16 437.485
BEESAT 30 Aug 16:26:30 16:31:02 45° 290° (WNW) 16:35:33 436.000
AO-7 30 Aug 16:47:34 16:55:25 44° 261° (W) 17:03:19 29.400- 29.500
Cosmos 2491 30 Aug 16:53:10 16:58:50 19° 76° (ENE) 17:04:30 435.465 / 435.565
Cubesat XI-IV 30 Aug 16:54:53 16:57:25 14° 55° (NE) 16:59:55 437.490
NOAA 15 30 Aug 16:55:42 16:59:01 17° 58° (ENE) 17:02:20 137.62
GOMX 1 30 Aug 17:04:09 17:07:08 15° 57° (ENE) 17:10:11 467.674
CUTE-I 30 Aug 17:04:52 17:08:06 17° 58° (ENE) 17:11:19 437.470
YUBILEINY 30 Aug 17:05:04 17:13:35 51° 73° (ENE) 17:21:59 435.215
Cosmos 2504 30 Aug 17:16:49 17:21:55 20° 62° (ENE) 17:26:57 435.465 / 435.565
ITUPSAT 1 30 Aug 17:17:09 17:20:16 18° 299° (WNW) 17:23:22 437.325
KKS-1 30 Aug 17:20:20 17:24:50 85° 102° (ESE) 17:29:17 437.445
HO-68 30 Aug 17:38:42 17:39:19 10° 42° (NE) 17:39:56 435.675
CUBESAT XI-V 30 Aug 17:40:56 17:44:55 27° 94° (E) 17:48:53 437.345
BEESAT 2 30 Aug 17:41:35 17:45:11 30° 45° (NE) 17:48:45 435.950
BRITE-PL 30 Aug 17:41:41 17:46:35 58° 72° (ENE) 17:51:54 437.365/2234.400
HORYU 2 30 Aug 17:42:25 17:46:48 55° 259° (W) 17:51:11 437.375
STARS 30 Aug 17:47:32 17:51:58 82° 103° (ESE) 17:56:21 437.465
MOZHAYETS 4 30 Aug 17:49:20 17:53:34 38° 291° (WNW) 17:57:48
BEESAT 3 30 Aug 17:53:03 17:57:01 67° 53° (NE) 18:00:58 437.485
LilacSat-2 30 Aug 18:00:04 18:03:33 34° 71° (ENE) 18:07:03 437.200
NOAA 18 30 Aug 18:09:13 18:14:33 51° 68° (ENE) 18:19:53 137.9125
PCSat 30 Aug 18:25:49 18:28:17 13° 29° (NNE) 18:30:45 145.827
DOVE 4 30 Aug 18:30:03 18:34:53 39° 68° (ENE) 18:39:49 437.250
Cubesat XI-IV 30 Aug 18:31:19 18:36:39 82° 74° (ENE) 18:42:01 437.490
NOAA 15 30 Aug 18:32:54 18:38:09 77° 255° (WSW) 18:43:29 137.62
GOMX 1 30 Aug 18:39:10 18:44:23 89° 258° (WSW) 18:49:52 467.674
CANX-2 30 Aug 18:41:43 18:42:40 11° 59° (ENE) 18:43:37 2200.000
CUTE-I 30 Aug 18:42:09 18:47:29 81° 257° (WSW) 18:52:51 437.470
AIST 2 30 Aug 18:43:45 18:45:08 11° 30° (NNE) 18:46:31 435.215
Cosmos 2491 30 Aug 18:45:37 18:54:21 88° 100° (E) 19:03:11 435.465 / 435.565
CUTE 1.7 + AOD 2 30 Aug 18:47:12 18:48:06 11° 59° (ENE) 18:49:01 437.475
CINEMA 3 30 Aug 18:48:58 18:52:24 19° 63° (ENE) 18:55:49 145.822/145.860
KKS-1 30 Aug 18:59:01 19:00:44 12° 302° (WNW) 19:02:27 437.445
YUBILEINY 30 Aug 19:02:17 19:10:09 39° 275° (W) 19:17:59 435.215
Cosmos 2504 30 Aug 19:09:01 19:16:16 81° 264° (W) 19:23:27 435.465 / 435.565
CUBESAT XI-V 30 Aug 19:18:03 19:22:22 36° 291° (WNW) 19:26:39 437.345
HO-68 30 Aug 19:18:32 19:25:14 44° 63° (ENE) 19:31:57 435.675
BEESAT 2 30 Aug 19:19:25 19:22:59 31° 243° (WSW) 19:26:32 435.950
BRITE-PL 30 Aug 19:21:56 19:25:32 20° 272° (W) 19:29:20 437.365/2234.400
STARS 30 Aug 19:25:55 19:27:41 12° 301° (WNW) 19:29:25 437.465
BEESAT 3 30 Aug 19:32:22 19:34:10 13° 250° (WSW) 19:35:58 437.485
LilacSat-2 30 Aug 19:35:12 19:37:58 19° 267° (W) 19:40:43 437.200
SEEDS 30 Aug 19:46:00 19:49:37 29° 68° (ENE) 19:53:15 437.485
AIST 1 30 Aug 19:49:40 19:53:34 30° 73° (ENE) 19:57:26
NOAA 18 30 Aug 19:51:00 19:55:28 25° 266° (W) 19:59:57 137.9125
AAUSAT CUBESAT 2 30 Aug 20:07:42 20:11:12 28° 68° (ENE) 20:14:44 437.432
PCSat 30 Aug 20:07:47 20:13:04 48° 52° (NE) 20:18:18 145.827
DOVE 4 30 Aug 20:08:02 20:12:37 30° 266° (W) 20:17:18 437.250
UWE-3 30 Aug 20:11:58 20:15:28 23° 66° (ENE) 20:18:54 435.000/436.395/437.385
CANX-2 30 Aug 20:13:39 20:17:51 86° 259° (W) 20:22:05 2200.000
Cubesat XI-IV 30 Aug 20:14:39 20:17:23 14° 272° (W) 20:20:07 437.490
COMPASS 1 30 Aug 20:18:35 20:22:31 45° 72° (ENE) 20:26:29 437.405
STRAND 1 30 Aug 20:18:54 20:23:54 54° 100° (E) 20:28:54 437.568
CUTE 1.7 + AOD 2 30 Aug 20:19:05 20:23:17 86° 257° (WSW) 20:27:30 437.475
ZACube-1 30 Aug 20:19:40 20:22:35 18° 64° (ENE) 20:25:29 437.345
CUBEBUG 2 30 Aug 20:20:25 20:24:44 39° 70° (ENE) 20:28:56 437.445
AIST 2 30 Aug 20:20:27 20:24:33 53° 50° (NE) 20:28:40 435.215
GOMX 1 30 Aug 20:21:01 20:23:15 13° 275° (W) 20:25:32 467.674
CINEMA 3 30 Aug 20:24:08 20:29:05 62° 259° (W) 20:33:59 145.822/145.860
CUTE-I 30 Aug 20:27:08 20:28:21 11° 274° (W) 20:29:35 437.470
PRISM 30 Aug 20:45:44 20:46:23 10° 88° (E) 20:47:02 437.425
Cosmos 2491 30 Aug 20:46:00 20:52:29 22° 300° (WNW) 20:59:02 435.465 / 435.565
Cosmos 2504 30 Aug 21:05:03 21:08:20 14° 284° (WNW) 21:11:37 435.465 / 435.565
HO-68 30 Aug 21:06:17 21:12:58 41° 262° (W) 21:19:43 435.675
DELFI C3 30 Aug 21:18:23 21:21:43 27° 68° (ENE) 21:25:04 145.870
Oscar 11 30 Aug 21:18:39 21:22:54 67° 74° (ENE) 21:27:12 145.826/435.025
GONETS M04 30 Aug 21:21:48 21:27:33 18° 56° (NE) 21:33:16
SEEDS 30 Aug 21:21:49 21:25:19 26° 266° (W) 21:28:49 437.485
AIST 1 30 Aug 21:27:23 21:31:04 26° 271° (W) 21:34:42
FUNcube-1 30 Aug 21:30:37 21:35:01 84° 79° (ENE) 21:39:22 145.935
AAUSAT CUBESAT 2 30 Aug 21:43:09 21:46:39 27° 265° (W) 21:50:10 437.432
UWE-3 30 Aug 21:47:26 21:51:42 40° 262° (W) 21:55:54 435.000/436.395/437.385
AUBIESAT-1 30 Aug 21:47:52 21:50:18 14° 54° (NE) 21:52:44 437.475
PCSat 30 Aug 21:51:38 21:56:12 28° 251° (WSW) 22:00:45 145.827
ZACube-1 30 Aug 21:54:12 21:58:31 51° 260° (W) 22:02:46 437.345
M-CUBED/EXP-1 PRIME 30 Aug 21:55:25 21:58:49 20° 57° (ENE) 22:02:10 437.505
COMPASS 1 30 Aug 21:55:40 21:58:19 17° 269° (W) 22:01:00 437.405
CUBEBUG 2 30 Aug 21:57:43 22:01:27 23° 266° (W) 22:05:07 437.445
STRAND 1 30 Aug 21:58:52 22:02:43 22° 298° (WNW) 22:06:35 437.568
AIST 2 30 Aug 21:59:49 22:02:40 18° 248° (WSW) 22:05:31 435.215
Cosmos 2499 30 Aug 22:04:04 22:09:05 20° 62° (ENE) 22:14:06 435.465 / 435.565
HUMSAT D 30 Aug 22:10:55 22:14:55 51° 73° (ENE) 22:18:55 437.325/437.525
ESTCUBE 1 30 Aug 22:13:03 22:14:41 12° 58° (ENE) 22:16:20 437.505/2401.250
PRISM 30 Aug 22:18:01 22:22:13 76° 285° (WNW) 22:26:23 437.425
UNISAT 6 30 Aug 22:33:44 22:36:40 18° 92° (E) 22:39:35 437.425
O/OREOS (USA 219) 30 Aug 22:40:59 22:45:04 31° 56° (ENE) 22:49:09 437.305
CUBEBUG 1 30 Aug 22:45:53 22:48:38 16° 62° (ENE) 22:51:23 437.445
VELOX 1 30 Aug 22:52:51 22:55:37 16° 61° (ENE) 22:58:22 145.980
DELFI C3 30 Aug 22:53:13 22:56:30 25° 265° (W) 22:59:51 145.870
SO-50 30 Aug 22:56:45 23:01:05 33° 116° (ESE) 23:05:24 436.795
Oscar 11 30 Aug 22:57:44 22:59:30 12° 271° (W) 23:01:17 145.826/435.025
DX 1 30 Aug 22:59:14 23:01:16 13° 59° (ENE) 23:03:20 434.975-435.025
ANTELSAT 30 Aug 23:09:44 23:13:48 41° 98° (E) 23:17:50 437.575/2403.000
GONETS M04 30 Aug 23:17:10 23:26:05 77° 80° (E) 23:34:56
AUBIESAT-1 30 Aug 23:19:29 23:24:08 86° 248° (WSW) 23:28:45 437.475
CUSAT 1 30 Aug 23:25:42 23:28:45 47° 94° (E) 23:32:40 437.405
M-CUBED/EXP-1 PRIME 30 Aug 23:28:15 23:32:54 59° 254° (WSW) 23:37:32 437.505
JAS-2 30 Aug 23:28:57 23:30:54 11° 84° (E) 23:32:53 435.910
UKube-1 30 Aug 23:31:37 23:34:52 21° 64° (ENE) 23:38:07 .
TIGRISAT 30 Aug 23:39:33 23:43:51 83° 103° (ESE) 23:48:05 435.000
AISAT 30 Aug 23:40:20 23:44:37 47° 71° (ENE) 23:48:56 437.250
ESTCUBE 1 30 Aug 23:46:19 23:50:48 87° 256° (WSW) 23:55:20 437.505/2401.250
HUMSAT D 30 Aug 23:48:28 23:50:50 15° 269° (W) 23:53:13 437.325/437.525
Cosmos 2499 30 Aug 23:56:01 00:03:05 79° 264° (W) 00:10:15 435.465 / 435.565
QB50P1 31 Aug 00:00:17 00:03:35 22° 94° (E) 00:06:52 145.935-145.965
UNISAT 6 31 Aug 00:09:33 00:13:38 44° 289° (WNW) 00:17:41 437.425
POPSAT HIP 1 31 Aug 00:10:25 00:14:02 27° 95° (E) 00:17:38 437.405
50 SAT 31 Aug 00:17:52 00:21:24 68° 258° (WSW) 00:25:00 437.505
CUBEBUG 1 31 Aug 00:20:06 00:24:27 59° 259° (W) 00:28:51 437.445
O/OREOS (USA 219) 31 Aug 00:20:22 00:24:27 32° 255° (WSW) 00:28:33 437.305
SPROUT 31 Aug 00:21:16 00:25:31 61° 73° (ENE) 00:29:47 437.525
VELOX 1 31 Aug 00:27:13 00:31:36 60° 259° (W) 00:36:03 145.980
TISAT 1 31 Aug 00:29:03 00:31:59 18° 63° (ENE) 00:34:55 437.305
DX 1 31 Aug 00:32:30 00:36:52 76° 257° (WSW) 00:41:17 434.975-435.025
DUCHIFAT 1 31 Aug 00:33:37 00:37:39 43° 99° (E) 00:41:37 145.980
SO-50 31 Aug 00:36:58 00:41:31 39° 314° (NW) 00:46:01 436.795
QB50P2 31 Aug 00:41:20 00:45:34 64° 102° (ESE) 00:49:43 145.880/145.840
POLYITAN 1 31 Aug 00:43:51 00:48:03 65° 102° (ESE) 00:52:13 437.675
ANTELSAT 31 Aug 00:47:07 00:50:15 20° 296° (WNW) 00:53:22 437.575/2403.000
RS-15 31 Aug 00:48:59 00:59:44 48° 110° (ESE) 01:11:00 29.354- 29.394
NANOSAT C BR1 31 Aug 00:49:06 00:53:19 70° 102° (ESE) 00:57:28 145.865
DANDE 31 Aug 00:56:24 00:58:54 36° 287° (WNW) 01:01:49 436.750
AUBIESAT-1 31 Aug 00:58:25 00:59:09 10° 267° (W) 00:59:53 437.475
UKube-1 31 Aug 01:06:33 01:10:38 42° 261° (W) 01:14:47 .
JAS-2 31 Aug 01:10:07 01:17:00 62° 101° (E) 01:24:33 435.910
CUSAT 1 31 Aug 01:10:16 01:11:31 11° 303° (WNW) 01:12:52 437.405
ITUPSAT 1 31 Aug 01:12:18 01:14:21 13° 57° (ENE) 01:16:24 437.325
BUGSAT 1 31 Aug 01:14:11 01:18:14 51° 100° (E) 01:22:12 437.445
GONETS M04 31 Aug 01:15:13 01:21:57 25° 281° (W) 01:28:41
AISAT 31 Aug 01:18:13 01:21:21 19° 268° (W) 01:24:30 437.250
TIGRISAT 31 Aug 01:18:36 01:19:53 11° 301° (WNW) 01:21:09 435.000
QB50P1 31 Aug 01:35:36 01:39:28 35° 291° (WNW) 01:43:17 145.935-145.965
PHONESAT 2.4 31 Aug 01:36:14 01:38:38 22° 164° (SSE) 01:41:02 2401.200-2431.200
SWISSCUBE 31 Aug 01:41:13 01:45:04 25° 64° (ENE) 01:48:57 437.505
POPSAT HIP 1 31 Aug 01:46:09 01:49:47 29° 293° (WNW) 01:53:24 437.405
Cosmos 2499 31 Aug 01:51:56 01:54:56 13° 284° (WNW) 01:57:56 435.465 / 435.565
BEESAT 31 Aug 01:57:30 02:01:42 32° 67° (ENE) 02:05:56 436.000
SPROUT 31 Aug 01:59:40 02:01:51 14° 270° (W) 02:04:03 437.525
TISAT 1 31 Aug 02:03:12 02:07:18 47° 261° (W) 02:11:25 437.305
DUCHIFAT 1 31 Aug 02:10:04 02:13:02 19° 296° (WNW) 02:15:59 145.980
QB50P2 31 Aug 02:18:39 02:20:51 14° 299° (WNW) 02:23:01 145.880/145.840
POLYITAN 1 31 Aug 02:21:12 02:23:20 14° 299° (WNW) 02:25:27 437.675
SO-50 31 Aug 02:21:50 02:23:19 11° 336° (NNW) 02:24:48 436.795
NANOSAT C BR1 31 Aug 02:26:33 02:28:29 13° 300° (WNW) 02:30:25 145.865
Oscar 19 31 Aug 02:27:56 02:33:04 55° 100° (E) 02:38:09 437.125/150
Gurwin Techsat 1B 31 Aug 02:28:08 02:32:37 27° 94° (E) 02:37:04 435.225
KKS-1 31 Aug 02:46:37 02:48:34 13° 58° (ENE) 02:50:31 437.445
ITUPSAT 1 31 Aug 02:46:43 02:51:29 89° 265° (W) 02:56:16 437.325
BUGSAT 1 31 Aug 02:50:40 02:53:11 16° 298° (WNW) 02:55:43 437.445
JAS-2 31 Aug 02:55:51 03:01:40 31° 298° (WNW) 03:07:59 435.910
AO-7 31 Aug 02:58:41 02:59:39 10° 83° (E) 03:00:37 29.400- 29.500
Cosmos 2491 31 Aug 03:00:18 03:02:34 11° 48° (NE) 03:04:49 435.465 / 435.565
RS-15 31 Aug 03:00:23 03:11:56 62° 315° (NW) 03:24:08 29.354- 29.394
PHONESAT 2.4 31 Aug 03:11:49 03:14:34 33° 181° (S) 03:17:19 2401.200-2431.200
STARS 31 Aug 03:12:56 03:14:30 12° 58° (ENE) 03:16:03 437.465
MOZHAYETS 4 31 Aug 03:16:20 03:20:15 29° 67° (ENE) 03:24:11
SWISSCUBE 31 Aug 03:18:13 03:22:40 40° 262° (W) 03:27:10 437.505
BEESAT 31 Aug 03:35:17 03:39:28 31° 264° (W) 03:43:41 436.000
ITAMSAT 1 31 Aug 03:50:07 03:55:04 44° 99° (E) 04:00:00 435.822/435.867
Gurwin Techsat 1B 31 Aug 04:07:42 04:12:44 44° 292° (WNW) 04:17:43 435.225
Oscar 19 31 Aug 04:08:03 04:12:01 22° 298° (WNW) 04:15:57 437.125/150
KKS-1 31 Aug 04:19:59 04:24:29 82° 257° (WSW) 04:29:00 437.445
ITUPSAT 1 31 Aug 04:29:12 04:30:00 10° 273° (W) 04:30:48 437.325
AO-85 31 Aug 04:35:14 04:39:56 33° 116° (ESE) 04:44:26 145.980
STARS 31 Aug 04:45:43 04:50:09 88° 247° (WSW) 04:54:38 437.465
AO-7 31 Aug 04:46:02 04:54:13 58° 103° (ESE) 05:02:21 29.400- 29.500
CUBESAT XI-V 31 Aug 04:46:07 04:50:12 32° 68° (ENE) 04:54:20 437.345
PHONESAT 2.4 31 Aug 04:48:10 04:50:30 21° 197° (SSW) 04:52:50 2401.200-2431.200
MOZHAYETS 4 31 Aug 04:53:19 04:57:21 31° 264° (W) 05:01:26
Cosmos 2491 31 Aug 04:53:31 05:02:05 50° 73° (ENE) 05:10:35 435.465 / 435.565
RS-15 31 Aug 05:17:12 05:27:35 32° 347° (NNW) 05:38:17 29.354- 29.394
ITAMSAT 1 31 Aug 05:30:03 05:34:19 27° 297° (WNW) 05:38:36 435.822/435.867
HORYU 2 31 Aug 05:31:41 05:35:13 23° 94° (E) 05:38:45 437.375
